Back to catalog

SL-8 DEB

AliveLEO
NORAD 15785·DEBRIS·🇷🇺 Russia

Launched Feb 21, 1984 from Plesetsk Cosmodrome

Loading…

Next Passes (next 24 hours)

TLE

FreshSource: Space-Track

Epoch: Sep 14, 2026, 06:56 UTC

1 15785U 84019C   26257.28895627  .00001599  00000-0  25355-3 0  9994
2 15785  74.0303 113.3611 0007692 149.7350 210.4268 14.73055043347238

Track SL-8 DEB in real time with AllMySat

Download on the App Store